Tracking 30160 objects as of 13-Feb-2025
HD Live streaming from Space Station
objects crossing your sky now

STARLINK-11499

Track STARLINK-11499 now!
10-day predictions
STARLINK-11499 is classified as:


NORAD ID: 62279
Int'l Code: 2024-237N
Perigee: 362.8 km
Apogee: 364.5 km
Inclination: 43.0 °
Period: 91.7 minutes
Semi major axis: 6734 km
RCS: Unknown
Launch date: December 8, 2024
Source: United States (US)
Launch site: AIR FORCE EASTERN TEST RANGE (AFETR)
Your satellite tracking list
Your tracking list is empty




NASA's NSSDC Master Catalog

Two Line Element Set (TLE):
1 62279U 24237N   25044.55213657  .00000731  00000-0  91896-5 0  9992
2 62279  42.9998 242.8617 0001258 261.1057  98.9669 15.70836481 11784
Source of the keplerian elements: AFSPC